ATLAS 5 CENTAUR DEB, 43951

Orbit data source: Space-Track

ATLAS 5 CENTAUR DEB, 43951 is space debris in HEO originally from a launch on Wed, 17 Sep 2014 UTC launched from the Air Force Eastern Test Range (AFETR). Debris objects in space refer to the collection of defunct objects orbiting the Earth. Examples of debris include non-operational satellites, rocket bodies, and fragments generated from explosions, collisions, or faulty payload assembly.

Loading next visibility...
Identifier
43951, 2014-055E
Orbit
HEO
Country
Flag of USUS
Related business
Flag of USUnited Launch Alliance/Lockheed Martin (US)
Manufacturer
Unknown
Mission
Spacecraft
Bus & Motor
Unknown
Mass
Unknown
Launch date (UTC)
2014-09-17 (11 years ago)
Launch vehicle
Unknown
Launch site
Air Force Eastern Test Range (AFETR)
Object type
Payload
Rocket body
Debris
Shape & HBR
Unknown shape, 1.1 m
Radar Cross Section
Small (<0.1 m²)

Expand to show TLE details & history
Last TLE update: 13 hours ago

TLE from 13 hours ago
0 ATLAS 5 CENTAUR DEB
1 43951U 14055E   25310.04939603  .00000001  00000-0  00000-0 0  9993
2 43951  20.2828 145.9065 4906962 162.8706 222.5757  1.89456461 49661
Epoch: 2025-11-06T01:11Z
TLE epoch observation values (Epoch: 2025-11-06T01:11:07.816Z)
Latitude
0.00001°
Longitude
82.65942°
Altitude
33,030.451 km
Speed
2.405 km/s
True Right ascension
09h 43m 49s
True Declination
0° 00' 00"
Sunlit
Object was in daylight at epoch
Visualization orbit readout
Latitude
Unknown
Longitude
Unknown
Altitude
Unknown
Speed
Unknown
Apparent Right ascension
Unknown
Apparent Declination
Unknown
Sunlit
N/A
Visualization observer readout
Local Sidereal Time
10:30:46
Azimuth
Unknown
Elevation
Unknown
Doppler factor
Unknown
Orbital elements
Apogee altitude
34,750.986 km
Perigee altitude
7,673.833 km
Semi-major axis
27,590.546 km
Eccentricity
0.4907
Inclination
20.2828°
RAAN
145.9065°
Arg. of periapsis
162.8706°
True anomaly
197.16879°
Mean anomaly
222.5757°
Eccentric anomaly
208.96177°
Mean motion
0.47359 °/min
Orbital period
760.15 mins
BSTAR
0
Loading maneuver chart data...
Computing Atmospheric mass density...

Documentation

Showing up to 5 results
|